Starlink 1686

operational
NORAD ID: 46328 Int'l Des: 2020-062 Owner: SPXS Country: US Constellation: starlink
LEOCIRCULARSTARLINK_TYPE

About Starlink 1686

Description loading...

Live Position

Loading 3D Globe...

Upcoming Passes

Altitude History

Altitude vs Time

uPlot chart will show altitude changes over time

Two-Line Element Set

1 46328U 20062D 25304.01833959 .00079118 00000-0 23373-2 0 9991
2 46328 53.0544 216.7177 0002719 111.7147 248.4143 15.34272793285079
Epoch: Oct 31, 2025 • Age: 17 hours

Current Status

Altitude 481.8 km
Velocity 7.62 km/s
Sub-Earth Point -50.01°S, 149.72°W
Launch Date Sep 3, 2020
Age 5.1 years
Type internet

Technical Details

Classification Payload
Mass 260.00 kg
Dry Mass 248.00 kg
Total Mass 260.00 kg
Length 0.20 m
Diameter 2.80 m
Span 9.00 m
Shape Box + pan
Manufacturer SPXS
Bus Type Starlink
Phase Status In Orbit
Owner/State SPXS/US

Large Constellations

Loading constellations...